Change the Weather History Date:

Tuesday, September 4, 2012

  Actual Average Record
Temperature  
Mean Temperature 74 °F -  
Max Temperature 82 °F 82 °F - ()
Min Temperature 65 °F 66 °F - ()
Cooling Degree Days 8    
Growing Degree Days 24 (Base 50)    
Moisture  
Dew Point 59 °F    
Average Humidity 61    
Maximum Humidity 83    
Minimum Humidity 31    
Precipitation  
Precipitation 0.00 in 0.05 in - ()
Sea Level Pressure  
Sea Level Pressure 30.04 in    
Wind  
Wind Speed 12 mph ()    
Max Wind Speed 22 mph    
Max Gust Speed -    
Visibility 7.6 miles    
Events      
T = Trace of Precipitation, MM = Missing Value Source: Averaged Metar Reports

Daily Weather History Graph

Daily Weather History Graph

Search for Another Location

Airport or City:

Trip Planner

Search our weather history database for the weather conditions in past years. The results will help you decide how hot, cold, wet, or windy it might be!

Date:

Astronomy

Sep. 04, 2012 Rise Set
Actual Time 6:21 AM AEST 6:10 PM AEST
Civil Twilight 5:59 AM AEST 6:32 PM AEST
Nautical Twilight 5:34 AM AEST 6:57 PM AEST
Astronomical Twilight 5:09 AM AEST 7:22 PM AEST
Moon 9:16 PM AEST (9/4) 8:22 AM AEST (9/4)
Length of Visible Light 12h 33m
Length of Day
11h 49m
Waning Gibbous, 88% of the Moon is Illuminated
Sep 4
Waning Gibbous
Sep 8
Last Quarter
Sep 16
New
Sep 23
First Quarter
Sep 30
Full

Hourly Weather History & Observations

Time (AEST) Temp. Heat Index Dew Point Humidity Pressure Visibility Wind Dir Wind Speed Gust Speed Precip Events Conditions
12:00 AM 68 °F - 60 °F 68% 30.06 in - SSE 9.2 mph - -  
12:00 AM 68.0 °F - 60.8 °F 78% 30.04 in 6.2 mi SSE 9.2 mph - N/A   Partly Cloudy
1:00 AM 69 °F - 60 °F 67% 30.05 in - South 9.2 mph - -  
1:00 AM 69.8 °F - 60.8 °F 73% 30.04 in 6.2 mi South 9.2 mph - N/A   Scattered Clouds
1:30 AM 69.8 °F - 60.8 °F 73% 30.04 in 6.2 mi South 9.2 mph - N/A   Scattered Clouds
2:00 AM 69.8 °F - 60.8 °F 73% 30.01 in 6.2 mi South 10.4 mph - N/A   Partly Cloudy
2:30 AM 68.0 °F - 60.8 °F 78% 30.01 in 6.2 mi SSE 9.2 mph - N/A   Partly Cloudy
3:00 AM 69 °F - 61 °F 68% 30.02 in - South 10.4 mph - -  
3:00 AM 69.8 °F - 60.8 °F 73% 30.01 in 6.2 mi South 10.4 mph - N/A   Partly Cloudy
3:30 AM 68.0 °F - 60.8 °F 78% 30.01 in 6.2 mi South 9.2 mph - N/A   Partly Cloudy
4:00 AM 68 °F - 60 °F 69% 30.03 in - South 8.1 mph - -  
4:00 AM 68.0 °F - 60.8 °F 78% 30.01 in 6.2 mi South 8.1 mph - N/A   Partly Cloudy
4:30 AM 68.0 °F - 60.8 °F 78% 30.01 in 6.2 mi SSE 8.1 mph - N/A   Partly Cloudy
5:00 AM 68.0 °F - 60.8 °F 78% 30.04 in 6.2 mi SSE 8.1 mph - N/A   Partly Cloudy
5:30 AM 68.0 °F - 60.8 °F 78% 30.04 in 6.2 mi South 9.2 mph - N/A   Partly Cloudy
6:00 AM 66 °F - 60 °F 77% 30.05 in 19 mi SSE 11.5 mph - -   Partly Cloudy
6:00 AM 66.2 °F - 60.8 °F 83% 30.04 in 6.2 mi SSE 11.5 mph - N/A   Partly Cloudy
6:30 AM 66.2 °F - 60.8 °F 83% 30.04 in 6.2 mi SE 10.4 mph - N/A   Partly Cloudy
7:00 AM 67 °F - 61 °F 75% 30.07 in - SE 9.2 mph - -  
7:00 AM 68.0 °F - 60.8 °F 78% 30.06 in 6.2 mi SE 9.2 mph - N/A   Partly Cloudy
7:30 AM 71.6 °F - 60.8 °F 69% 30.06 in 6.2 mi SSE 13.8 mph - N/A   Partly Cloudy
8:00 AM 71.6 °F - 60.8 °F 69% 30.06 in 6.2 mi SSE 11.5 mph - N/A   Partly Cloudy
8:30 AM 75.2 °F - 60.8 °F 61% 30.09 in 6.2 mi SSE 12.7 mph - N/A   Scattered Clouds
9:00 AM 74 °F - 60 °F 53% 30.09 in 19 mi SSE 12.7 mph - -   Partly Cloudy
9:00 AM 75.2 °F - 60.8 °F 61% 30.09 in 6.2 mi SSE 12.7 mph - N/A   Scattered Clouds
9:30 AM 77.0 °F - 59.0 °F 54% 30.09 in 6.2 mi SE 18.4 mph - N/A   Partly Cloudy
10:00 AM 79 °F - 58 °F 38% 30.10 in - SE 20.7 mph - -  
10:00 AM 78.8 °F - 59.0 °F 51% 30.09 in 6.2 mi SE 20.7 mph - N/A   Partly Cloudy
10:30 AM 78.8 °F - 57.2 °F 47% 30.06 in 6.2 mi SE 18.4 mph - N/A   Partly Cloudy
11:00 AM 80.6 °F 80.8 °F 57.2 °F 45% 30.06 in 6.2 mi SE 19.6 mph - N/A   Partly Cloudy
11:30 AM 82.4 °F 82.0 °F 57.2 °F 42% 30.06 in 6.2 mi SE 17.3 mph - N/A   Partly Cloudy
12:00 PM 81 °F - 58 °F 35% 30.06 in 19 mi ESE 19.6 mph - -   Partly Cloudy
12:00 PM 80.6 °F 80.8 °F 57.2 °F 45% 30.04 in 6.2 mi ESE 19.6 mph - N/A   Partly Cloudy
12:30 PM 80.6 °F 80.8 °F 57.2 °F 45% 30.04 in 6.2 mi ESE 18.4 mph - N/A   Partly Cloudy
1:00 PM 82 °F - 56 °F 31% 30.04 in - ESE 20.7 mph - -  
1:00 PM 82.4 °F 82.0 °F 57.2 °F 42% 30.04 in 6.2 mi ESE 20.7 mph - N/A   Partly Cloudy
1:30 PM 80.6 °F 80.5 °F 55.4 °F 42% 30.01 in 6.2 mi SE 21.9 mph - N/A   Partly Cloudy
2:00 PM 80.6 °F 80.5 °F 55.4 °F 42% 30.01 in 6.2 mi ESE 19.6 mph - N/A   Scattered Clouds
2:30 PM 80.6 °F 80.8 °F 57.2 °F 45% 30.01 in 6.2 mi SE 20.7 mph - N/A   Partly Cloudy
3:00 PM 80 °F - 57 °F 35% 30.01 in 19 mi SE 21.9 mph - -   Partly Cloudy
3:00 PM 80.6 °F 80.8 °F 57.2 °F 45% 30.01 in 6.2 mi SE 21.9 mph - N/A   Partly Cloudy
3:30 PM 77.0 °F - 57.2 °F 50% 30.01 in 6.2 mi SE 21.9 mph - N/A   Partly Cloudy
4:00 PM 76 °F - 57 °F 41% 30.02 in - SE 19.6 mph - -  
4:00 PM 77.0 °F - 57.2 °F 50% 30.01 in 6.2 mi SE 19.6 mph - N/A   Scattered Clouds
4:30 PM 77.0 °F - 59.0 °F 54% 30.01 in 6.2 mi SE 19.6 mph - N/A   Scattered Clouds
5:00 PM 75.2 °F - 57.2 °F 53% 30.01 in 6.2 mi SE 20.7 mph - N/A   Scattered Clouds
5:30 PM 75.2 °F - 59.0 °F 57% 30.01 in 6.2 mi SE 17.3 mph - N/A   Scattered Clouds
6:00 PM 74 °F - 59 °F 50% 30.03 in 19 mi SE 13.8 mph - -   Partly Cloudy
6:00 PM 73.4 °F - 59.0 °F 61% 30.01 in 6.2 mi SE 13.8 mph - N/A   Scattered Clouds
6:30 PM 73.4 °F - 59.0 °F 61% 30.04 in 6.2 mi SE 13.8 mph - N/A   Scattered Clouds
7:00 PM 73 °F - 59 °F 52% 30.05 in - SSE 12.7 mph - -  
7:00 PM 73.4 °F - 59.0 °F 61% 30.04 in 6.2 mi SSE 12.7 mph - N/A   Partly Cloudy
7:30 PM 71.6 °F - 60.8 °F 69% 30.04 in 6.2 mi South 11.5 mph - N/A   Partly Cloudy
8:00 PM 71.6 °F - 60.8 °F 69% 30.04 in 6.2 mi South 10.4 mph - N/A   Partly Cloudy
8:30 PM 69.8 °F - 60.8 °F 73% 30.06 in 6.2 mi South 10.4 mph - N/A   Partly Cloudy
9:00 PM 70 °F - 60 °F 64% 30.06 in 19 mi South 9.2 mph - -   Partly Cloudy
9:00 PM 69.8 °F - 60.8 °F 73% 30.06 in 6.2 mi South 9.2 mph - N/A   Partly Cloudy
9:30 PM 69.8 °F - 60.8 °F 73% 30.06 in 6.2 mi South 9.2 mph - N/A   Partly Cloudy
10:00 PM 70 °F - 60 °F 63% 30.07 in - South 9.2 mph - -  
10:00 PM 69.8 °F - 60.8 °F 73% 30.06 in 6.2 mi South 9.2 mph - N/A   Partly Cloudy
10:30 PM 69.8 °F - 60.8 °F 73% 30.06 in 6.2 mi South 9.2 mph - N/A   Partly Cloudy
11:00 PM 69.8 °F - 60.8 °F 73% 30.06 in 6.2 mi South 10.4 mph - N/A   Partly Cloudy
11:30 PM 69.8 °F - 60.8 °F 73% 30.06 in 6.2 mi South 10.4 mph - N/A   Partly Cloudy